Weather History for Huron, SD

Change the Weather History Date:

Tuesday, January 8, 2013

  Actual Average Record
Temperature  
Mean Temperature 30 °F 16 °F  
Max Temperature 37 °F 26 °F 61 °F (1963)
Min Temperature 23 °F 6 °F -43 °F (1887)
Degree Days  
Heating Degree Days 35 49  
Month to date heating degree days 390  
Since 1 July heating degree days 3510  
Cooling Degree Days 0 0  
Month to date cooling degree days 0  
Year to date cooling degree days 0  
Moisture  
Dew Point 24 °F    
Average Humidity 81    
Maximum Humidity 92    
Minimum Humidity 63    
Precipitation  
Precipitation 0.00 in 0.02 in 0.34 in (1939)
Month to date precipitation 0.14  
Year to date precipitation 0.14  
Snow  
Snow 0.00 in 0.30 in 2.00 in (1982)
Month to date snowfall 2.0  
Since 1 July snowfall 18.3  
Snow Depth -    
Sea Level Pressure  
Sea Level Pressure 29.87 in    
Wind  
Wind Speed 9 mph (SSW)    
Max Wind Speed 16 mph    
Max Gust Speed -    
Visibility 10 miles    
Events      
T = Trace of Precipitation, MM = Missing Value Source: NWS Daily Summary

Daily Weather History Graph

Daily Weather History Graph

Search for Another Location

Airport:

Trip Planner

Search our weather history database for the weather conditions in past years. The results will help you decide how hot, cold, wet, or windy it might be!

Date:

Astronomy

Jan. 08, 2013 Rise Set
Actual Time 8:08 AM CST 5:11 PM CST
Civil Twilight 7:35 AM CST 5:44 PM CST
Nautical Twilight 6:59 AM CST 6:20 PM CST
Astronomical Twilight 6:24 AM CST 6:55 PM CST
Moon 4:42 AM CST (1/8) 2:15 PM CST (1/8)
Length of Visible Light 10h 08m
Length of Day
9h 03m
Waning Crescent, 13% of the Moon is Illuminated
Jan 8
Waning Crescent
Jan 11
New
Jan 18
First Quarter
Jan 26
Full
Feb 3
Last Quarter

Hourly Weather History & Observations

Time (CST) Temp. Windchill Dew Point Humidity Pressure Visibility Wind Dir Wind Speed Gust Speed Precip Events Conditions
12:55 AM 21.9 °F 15.7 °F 19.0 °F 89% 29.93 in 10.0 mi SSE 4.6 mph - N/A   Clear
1:55 AM 21.0 °F 12.4 °F 19.0 °F 92% 29.90 in 10.0 mi SSE 6.9 mph - N/A   Clear
2:55 AM 21.0 °F 12.4 °F 18.0 °F 88% 29.90 in 10.0 mi SSE 6.9 mph - N/A   Clear
3:55 AM 19.9 °F 10.1 °F 17.1 °F 89% 29.88 in 10.0 mi SSE 8.1 mph - N/A   Clear
4:55 AM 21.9 °F 11.0 °F 18.0 °F 85% 29.85 in 10.0 mi SSE 10.4 mph - N/A   Clear
5:55 AM 23.0 °F 11.1 °F 19.0 °F 85% 29.85 in 10.0 mi SSE 12.7 mph - N/A   Clear
6:55 AM 24.1 °F 14.4 °F 19.9 °F 84% 29.83 in 10.0 mi SSE 9.2 mph - N/A   Overcast
7:55 AM 24.1 °F 12.5 °F 19.9 °F 84% 29.80 in 9.0 mi SSE 12.7 mph - N/A   Overcast
8:55 AM 24.1 °F 14.4 °F 21.0 °F 88% 29.76 in 7.0 mi SSE 9.2 mph - N/A   Clear
9:55 AM 26.1 °F 19.4 °F 21.9 °F 84% 29.78 in 8.0 mi SSE 5.8 mph - N/A   Overcast
10:55 AM 26.1 °F 16.2 °F 21.9 °F 84% 29.78 in 8.0 mi South 10.4 mph - N/A   Mostly Cloudy
11:55 AM 28.0 °F 19.3 °F 23.0 °F 81% 29.77 in 9.0 mi South 9.2 mph - N/A   Clear
12:55 PM 30.0 °F 25.2 °F 24.1 °F 79% 29.76 in 10.0 mi SSW 4.6 mph - N/A   Clear
1:55 PM 34.0 °F 29.8 °F 26.1 °F 73% 29.77 in 10.0 mi SW 4.6 mph - N/A   Clear
2:55 PM 37.0 °F 32.4 °F 28.9 °F 73% 29.79 in 10.0 mi WNW 5.8 mph - N/A   Clear
3:55 PM 36.0 °F 28.5 °F 30.0 °F 79% 29.84 in 10.0 mi West 10.4 mph - N/A   Clear
4:55 PM 36.0 °F 31.1 °F 28.9 °F 76% 29.88 in 10.0 mi WSW 5.8 mph - N/A   Clear
5:55 PM 34.0 °F 26.0 °F 28.0 °F 79% 29.90 in 10.0 mi West 10.4 mph - N/A   Clear
6:55 PM 34.0 °F 26.6 °F 28.0 °F 79% 29.92 in 10.0 mi WSW 9.2 mph - N/A   Partly Cloudy
7:55 PM 36.0 °F 27.5 °F 28.9 °F 76% 29.95 in 10.0 mi West 12.7 mph - N/A   Mostly Cloudy
8:55 PM 36.0 °F 26.3 °F 32.0 °F 86% 29.97 in 10.0 mi West 16.1 mph - N/A   Overcast
9:55 PM 35.1 °F 26.4 °F 30.9 °F 85% 30.01 in 10.0 mi West 12.7 mph - N/A   Clear
10:55 PM 34.0 °F 24.6 °F 30.0 °F 85% 30.05 in 10.0 mi WNW 13.8 mph - N/A   Scattered Clouds
11:55 PM 34.0 °F 25.0 °F 30.0 °F 85% 30.08 in 10.0 mi West 12.7 mph - N/A   Clear